GORIZONT 14 (17969 NORAD) Tracking and Keplerian Element Data

This shows tracking and keplerian element data for the satellite.

Feedback or suggestion? Click here.




ElementValue
Catalog17969
NameGORIZONT 14
Epoch Orbit11497
Epoch Day33.17328351
Epoch Year2025
RAAN322.9609
Inclination11.5786
Eccentricity0.0028929
Argument of Perigee201.8446
Mean Anonmoly339.5795
Mean Motion0.97659367
Decay Rate-1.17E-06
L11 17969U 87040A 25033.17328351 -.00000117 00000+0 00000+0 0 9992
L22 17969 11.5786 322.9609 0028929 201.8446 339.5795 0.97659367114973



Live tracking and technical data element details for GORIZONT 14 (NORAD 17969). GORIZONT 14 can be tracked NOW for your location showing map with azimuth and elevation plus other details from your city location.







IsCatalogInMostPopularTable: catalog: 17969, numindb: 345
Update: records affected: 1



GetName: 17969 GORIZONT 14

Hit Count: updated at: Thu, 15 May 2025 19:16:06 GMT